SL-3 R/B (877 NORAD) Tracking and Keplerian Element Data

This shows tracking and keplerian element data for the satellite.

Feedback or suggestion? Click here.




ElementValue
Catalog877
NameSL-3 R/B
Epoch Orbit4579
Epoch Day16.1786821
Epoch Year2022
RAAN80.5501
Inclination65.0783
Eccentricity0.0066444
Argument of Perigee187.9556
Mean Anonmoly172.0496
Mean Motion14.59468389
Decay Rate4.6E-07
L11 00877U 64053B 22016.17868210 .00000046 00000+0 34286-4 0 9990
L22 00877 65.0783 80.5501 0066444 187.9556 172.0496 14.59468389 45798

Live tracking and technical data element details for SL-3 R/B (NORAD 877). SL-3 R/B can be tracked NOW for your location showing map with azimuth and elevation plus other details from your city location.

Track the satellite on the map from your city or location and see movement details for azimuth, elevation, latitude, longitude, range, height, and movement on the map or in text.







IsCatalogInMostPopularTable: catalog: 877, numindb: 252
Update: records affected: 1



GetName: 877 SL-3 R/B

Hit Count: updated at: Mon, 17 Jan 2022 00:29:38 GMT